Preview of NWS' New Version of Forecast
This preview is not operational and should not be used for support decisions.

Regional Weather Roundup (RWR)

Issued by National Weather Service (NWS)

                            
000
ASUS45 KBOI 180010
RWRID 

IDAHO REGIONAL WEATHER ROUNDUP
NATIONAL WEATHER SERVICE BOISE ID
600 PM MDT MON JUN 17 2019

NOTE: "FAIR" INDICATES FEW OR NO CLOUDS BELOW 12000 FEET
WITH NO SIGNIFICANT WEATHER AND/OR OBSTRUCTIONS TO VISIBILITY

IDZ012-014-180100-
SOUTHWEST IDAHO

  
CITY           SKY/WX    TMP DP  RH WIND       PRES   REMARKS
BOISE          FAIR      88  39  17 NW13G21   29.90F                  
CALDWELL       FAIR      89  45  21 NW8       29.89F                  
MOUNTAIN HOME  FAIR      89  35  15 NW23      29.89F                  
$$

IDZ016-017-180100-
SOUTHCENTRAL IDAHO

  
CITY           SKY/WX    TMP DP  RH WIND       PRES   REMARKS
BURLEY         FAIR      82  45  27 NW10G18   29.94S                  
JEROME         FAIR      84  42  22 W9        29.95F                  
TWIN FALLS     FAIR      83  40  21 W13       29.96F                  
$$

IDZ019>023-180100-
SOUTHEAST IDAHO

  
CITY           SKY/WX    TMP DP  RH WIND       PRES   REMARKS
IDAHO FALLS    FAIR      67  52  58 NW5       30.03R                  
POCATELLO      PTSUNNY   73  43  33 N9        30.00S                  
REXBURG        FAIR      76  42  29 N6        30.02R                  
$$

IDZ006-010-011-018-031-032-180100-
CENTRAL IDAHO MOUNTAINS

  
CITY           SKY/WX    TMP DP  RH WIND       PRES   REMARKS
MCCALL         FAIR      72  47  40 NW12      30.04S                  
HAILEY         TSTM      61  54  77 NW7       30.08R                  
STANLEY          N/A     71  38  29 N5        30.09F                  
SALMON         CLOUDY    73  47  39 VRB3G17   29.98R                  
CHALLIS        FAIR      74  47  38 S7        30.03S                  
$$

IDZ002-004-006-007-026-180100-
NORTHERN IDAHO

  
CITY           SKY/WX    TMP DP  RH WIND       PRES   REMARKS
LEWISTON       FAIR      89  50  26 N14       29.91F                  
LOWELL           N/A     87  56  34 CALM      29.88S                  
COEUR D'ALENE  FAIR      84  53  34 W9        29.95F                  
MULLAN PASS    FAIR      60  50  69 CALM        N/A                   
$$